World > North America > United States > Iowa

Glenwood, Iowa Regional Weather

Lat: 41.05N, Lon: 95.74W
Wx Zone: IAZ079
Warning FLW WEATHER ALERT - (More Info. Click Here) Warning
Feedback

Glenwood, IA Regional Weather

Expires:201908250300;;162124
ASUS43 KDMX 250206
RWRIA 

WEATHER ROUNDUP FOR IOWA
NATIONAL WEATHER SERVICE DES MOINES IA
900 PM CDT SAT AUG 24 2019

NOTE: "FAIR" INDICATES FEW OR NO CLOUDS BELOW 12,000 FEET WITH NO
SIGNIFICANT WEATHER AND/OR OBSTRUCTIONS TO VISIBILITY.

* - THESE STATIONS ARE NOT NWS STATIONS...THUS NOT UNDER NWS
QUALITY CONTROL.  THEY ALSO DO NOT REPORT WEATHER SUCH 
AS PRECIPITATION OR FOG.  


IAZ055>058-069>071-079>083-090>094-250300-
   SOUTHWEST IOWA
  
CITY           SKY/WX    TMP DP  RH WIND       PRES   REMARKS
ATLANTIC *     CLOUDY    68  61  77 E5        30.07R                  
AUDUBON *      CLOUDY    64  61  88 SE3       30.09R                  
CLARINDA *     CLOUDY    70  64  83 SE5       30.07R                  
COUNCIL BLFS * CLOUDY    68  66  94 SE8       30.03S                  
CRESTON *      PTCLDY    66  61  82 E10       30.07S                  
HARLAN  *      CLOUDY    66  61  82 E8        30.06F                  
LAMONI         CLOUDY    68  58  70 E7        30.08S                  
RED OAK *      CLOUDY    70  61  73 E8        30.05S                  
SHENANDOAH *   CLOUDY    70  63  78 SE5       30.04R                  
$$
 

SKY/WX - Weather  TMP - Temperature  DP - Dew Point  RH - Relative Humidity
WIND - Wind Direction/Speed PRES - Barometric Pressure VSB - Visibility
WCI - Wind Chill Index E13G22 Wind - East Wind 13 mph/Gusts of 22 mph